TimeCST,TemperatureF,Dew PointF,Humidity,Sea Level PressureIn,VisibilityMPH,Wind Direction,Wind SpeedMPH,Gust SpeedMPH,PrecipitationIn,Events,Conditions,WindDirDegrees,DateUTC
12:53 AM,1.9,-2.0,83,30.13,9.0,WNW,8.1,-,N/A,,Clear,290,2012-12-28 06:53:00
1:53 AM,-0.0,-5.1,79,30.15,10.0,NW,11.5,-,N/A,,Clear,310,2012-12-28 07:53:00
2:53 AM,-0.9,-5.1,83,30.17,10.0,NW,6.9,-,N/A,,Clear,310,2012-12-28 08:53:00
3:40 AM,1.4,-2.2,85,30.01,10.0,West,11.5,-,N/A,,Mostly Cloudy,280,2012-12-28 09:40:00
3:53 AM,1.0,-4.0,79,30.17,10.0,West,11.5,-,N/A,,Mostly Cloudy,280,2012-12-28 09:53:00
4:53 AM,3.0,-2.0,80,30.15,10.0,WNW,13.8,-,N/A,,Overcast,290,2012-12-28 10:53:00
5:36 AM,3.2,-2.2,78,30.00,10.0,West,10.4,-,N/A,,Scattered Clouds,280,2012-12-28 11:36:00
5:53 AM,1.9,-2.0,83,30.17,10.0,West,9.2,-,N/A,,Partly Cloudy,280,2012-12-28 11:53:00
6:53 AM,3.9,-0.9,80,30.17,10.0,WNW,12.7,-,N/A,,Clear,300,2012-12-28 12:53:00
7:53 AM,3.9,-0.9,80,30.19,10.0,West,11.5,-,N/A,,Clear,280,2012-12-28 13:53:00
8:53 AM,1.9,-2.9,80,30.21,10.0,West,8.1,-,N/A,,Clear,270,2012-12-28 14:53:00
9:53 AM,3.9,-2.0,76,30.22,10.0,WNW,10.4,-,N/A,,Clear,290,2012-12-28 15:53:00
10:53 AM,8.1,1.9,76,30.23,10.0,WNW,10.4,-,N/A,,Clear,290,2012-12-28 16:53:00
11:53 AM,12.0,3.9,70,30.20,10.0,WNW,10.4,-,N/A,,Clear,300,2012-12-28 17:53:00
12:53 PM,14.0,6.1,71,30.19,10.0,WNW,8.1,-,N/A,,Clear,300,2012-12-28 18:53:00
1:53 PM,16.0,7.0,68,30.17,10.0,WNW,10.4,-,N/A,,Clear,300,2012-12-28 19:53:00
2:53 PM,18.0,9.0,68,30.16,10.0,WNW,10.4,-,N/A,,Clear,300,2012-12-28 20:53:00
3:53 PM,18.0,9.0,68,30.17,10.0,WNW,8.1,-,N/A,,Clear,300,2012-12-28 21:53:00
4:53 PM,17.1,9.0,71,30.18,10.0,West,8.1,-,N/A,,Clear,280,2012-12-28 22:53:00
5:53 PM,15.1,7.0,70,30.20,10.0,WNW,10.4,-,N/A,,Clear,290,2012-12-28 23:53:00
6:53 PM,10.0,5.0,80,30.23,10.0,West,5.8,-,N/A,,Clear,280,2012-12-29 00:53:00
7:53 PM,10.0,5.0,80,30.24,8.0,Calm,Calm,-,N/A,,Clear,0,2012-12-29 01:53:00
8:53 PM,8.1,3.9,83,30.26,8.0,West,4.6,-,N/A,,Clear,270,2012-12-29 02:53:00
9:53 PM,7.0,3.0,84,30.25,7.0,WSW,4.6,-,N/A,,Clear,250,2012-12-29 03:53:00
10:53 PM,1.9,-0.9,88,30.27,8.0,SW,3.5,-,N/A,,Clear,230,2012-12-29 04:53:00
11:53 PM,8.1,3.9,83,30.25,8.0,West,10.4,-,N/A,,Overcast,270,2012-12-29 05:53:00